Elmira, NY

10:33 PM EDT on May 22, 2017 (GMT -0400)
Elmira-Corning Regional

Weather History for KELM - November, 2013

Change the Weather History Date:

Saturday, November 16, 2013

  Actual Average Record
Temperature  
Mean Temperature 44 °F -  
Max Temperature 61 °F 46 °F 75 °F (1956)
Min Temperature 28 °F 29 °F 8 °F (1967)
Degree Days  
Heating Degree Days 20    
Moisture  
Dew Point 32 °F    
Average Humidity 61    
Maximum Humidity 85    
Minimum Humidity 35    
Precipitation  
Precipitation 0.00 in - - ()
Sea Level Pressure  
Sea Level Pressure 30.22 in    
Wind  
Wind Speed 1 mph (South)    
Max Wind Speed 12 mph    
Max Gust Speed -    
Visibility 10 miles    
Events      
Averages and records for this station are not official NWS values.
T = Trace of Precipitation, MM = Missing Value Source: NWS Daily Summary

Daily Weather History Graph

Daily Weather History Graph

Search for Another Location

Airport or City:

Trip Planner

Search our weather history database for the weather conditions in past years. The results will help you decide how hot, cold, wet, or windy it might be!

Date:

Astronomy

Nov. 16, 2013 Rise Set
Actual Time 6:59 AM EST 4:44 PM EST
Civil Twilight 6:29 AM EST 5:15 PM EST
Nautical Twilight 5:55 AM EST 5:49 PM EST
Astronomical Twilight 5:22 AM EST 6:22 PM EST
Moon 4:19 PM EST (11/16) 5:52 AM EST (11/16)
Length of Visible Light 10h 46m
Length of Day
9h 45m
Waxing Gibbous, 99% of the Moon is Illuminated
Nov 16
Waxing Gibbous
Nov 17
Full
Nov 25
Last Quarter
Dec 2
New
Dec 9
First Quarter

Hourly Weather History & Observations

Time (EST) Temp. Windchill Dew Point Humidity Pressure Visibility Wind Dir Wind Speed Gust Speed Precip Events Conditions
12:53 AM 43.0 °F - 30.9 °F 62% 30.18 in 10.0 mi Calm Calm - N/A   Overcast
1:53 AM 44.1 °F - 28.0 °F 53% 30.19 in 10.0 mi Calm Calm - N/A   Partly Cloudy
2:53 AM 37.0 °F - 27.0 °F 67% 30.21 in 10.0 mi Calm Calm - N/A   Clear
3:53 AM 30.9 °F - 25.0 °F 79% 30.22 in 10.0 mi Calm Calm - N/A   Clear
4:53 AM 30.9 °F - 25.0 °F 79% 30.22 in 10.0 mi Calm Calm - N/A   Clear
5:53 AM 28.9 °F - 23.0 °F 78% 30.24 in 10.0 mi Calm Calm - N/A   Clear
6:53 AM 28.0 °F - 23.0 °F 81% 30.25 in 10.0 mi Calm Calm - N/A   Clear
7:53 AM 30.0 °F - 26.1 °F 85% 30.28 in 10.0 mi Calm Calm - N/A   Clear
8:53 AM 37.9 °F - 28.9 °F 70% 30.30 in 10.0 mi Calm Calm - N/A   Clear
9:53 AM 45.0 °F - 30.9 °F 58% 30.30 in 10.0 mi Calm Calm - N/A   Clear
10:53 AM 52.0 °F - 33.1 °F 49% 30.29 in 10.0 mi Calm Calm - N/A   Clear
11:53 AM 57.0 °F - 36.0 °F 45% 30.26 in 10.0 mi Calm Calm - N/A   Clear
12:53 PM 60.1 °F - 34.0 °F 38% 30.22 in 10.0 mi SSW 8.1 mph - N/A   Clear
1:53 PM 61.0 °F - 34.0 °F 36% 30.19 in 10.0 mi Variable 3.5 mph - N/A   Clear
2:53 PM 61.0 °F - 33.1 °F 35% 30.18 in 10.0 mi Variable 3.5 mph - N/A   Clear
3:53 PM 59.0 °F - 33.1 °F 38% 30.19 in 10.0 mi South 11.5 mph - N/A   Clear
4:53 PM 54.0 °F - 34.0 °F 47% 30.20 in 10.0 mi SSE 4.6 mph - N/A   Clear
5:53 PM 52.0 °F - 36.0 °F 54% 30.20 in 10.0 mi South 5.8 mph - N/A   Clear
6:53 PM 52.0 °F - 36.0 °F 54% 30.19 in 10.0 mi SSW 3.5 mph - N/A   Clear
7:53 PM 43.0 °F - 34.0 °F 71% 30.20 in 10.0 mi Calm Calm - N/A   Clear
8:53 PM 39.9 °F 37.8 °F 33.1 °F 77% 30.20 in 10.0 mi NW 3.5 mph - N/A   Clear
9:53 PM 43.0 °F - 35.1 °F 74% 30.17 in 10.0 mi Calm Calm - N/A   Clear
10:53 PM 48.0 °F - 37.9 °F 68% 30.15 in 10.0 mi Calm Calm - N/A   Clear
11:53 PM 50.0 °F - 39.0 °F 66% 30.14 in 9.0 mi East 3.5 mph - N/A   Clear